SCP
2 2 2 2 2 2 2 1 1 1 1 1 2 2 1 1 1 1 1 1 0 0 0 0 0 0 0 0 1 2 2 2 2 2 2 2 2 2
2 2 2 2 2 1 1 1 1 1 1 1 1 1 1 1 1 1 1 1 0 0 0 0 0 0 0 0 1 1 1 2 2 2 2 2 2 2
1 1 1 1 1 1 1 1 1 1 1 1 1 1 1 1 1 1 1 1 0 0 0 0 0 0 0 0 0 0 1 1 1 1 2 2 2 1
1 1 1 1 1 1 1 0 0 0 0 1 1 1 2 2 1 1 1 1 0 0 0 0 0 0 0 0 0 0 0 0 1 1 1 1 1 1
1 1 1 0 1 1 1 1 0 0 0 0 1 1 1 1 1 1 1 1 0 0 0 0 0 0 0 0 0 0 0 0 0 0 1 1 1 1
1 1 1 1 1 1 0 0 0 0 0 0 0 1 1 1 1 1 1 1 1 0 0 0 0 0 0 0 0 0 0 0 0 0 0 0 0 0
1 1 1 1 1 0 0 0 0 0 0 0 0 1 1 2 2 2 2 1 1 1 1 1 0 0 0 0 0 0 0 0 0 0 0 0 0 0
2 1 1 1 1 0 0 0 0 0 0 0 0 1 1 2 2 2 2 1 1 1 1 1 1 1 1 0 0 0 0 0 0 0 0 0 0 0
1 1 1 1 1 0 0 0 0 0 0 0 0 0 1 2 2 2 2 1 1 1 1 1 1 1 1 0 0 0 0 0 0 0 0 0 0 0
1 1 1 1 1 1 1 0 0 0 0 0 0 0 1 1 2 2 2 2 1 1 1 1 1 1 1 0 0 0 0 0 0 0 0 0 0 0
1 1 1 0 0 0 1 1 1 1 0 0 0 0 0 0 1 2 2 2 2 1 1 1 1 1 0 0 0 0 0 0 0 0 0 0 0 0
1 1 0 0 0 0 0 1 1 1 1 0 0 0 0 0 1 1 2 2 2 1 1 1 1 0 0 0 0 0 0 0 0 0 0 0 0 0
1 0 0 0 0 0 0 1 1 1 1 1 0 0 1 1 1 1 2 2 2 2 1 1 1 0 0 0 0 0 0 0 0 0 0 0 0 0
0 0 0 0 0 0 0 0 0 1 1 1 1 1 1 1 1 1 2 2 2 2 2 2 1 1 0 0 0 0 0 0 0 0 0 0 0 0
0 0 0 0 0 0 0 0 0 0 1 1 1 0 0 1 1 1 2 2 2 2 2 2 2 1 1 0 0 0 0 0 0 0 0 0 0 0
0 0 0 0 0 0 0 0 0 0 0 1 0 0 0 1 1 1 1 1 2 2 2 2 2 1 1 1 0 0 0 0 0 0 0 0 0 0
0 0 0 0 0 0 0 0 0 0 0 0 0 0 0 0 1 1 1 1 1 2 2 2 2 1 1 1 0 0 0 0 0 1 1 0 0 0
0 0 0 0 0 0 0 0 0 0 0 0 0 0 0 0 1 1 1 1 1 1 2 2 2 2 1 1 1 0 0 0 0 1 1 0 0 0
0 0 0 0 0 0 0 0 0 0 0 0 0 0 1 1 1 1 1 1 1 1 2 2 2 2 1 1 1 0 0 0 0 0 0 0 0 0
0 0 0 0 0 0 0 0 0 0 0 0 0 1 1 1 1 1 1 1 1 1 2 2 2 2 1 1 1 0 0 0 0 0 0 0 0 0
0 0 0 0 0 0 0 0 0 0 1 1 1 1 1 1 1 1 1 1 1 1 1 1 1 1 1 1 1 0 0 0 0 0 0 0 0 0
0 0 0 0 0 0 0 0 0 1 1 1 1 1 1 1 1 1 1 1 0 1 1 1 1 1 1 1 0 0 0 0 0 0 0 0 0 0
0 0 0 1 0 0 0 0 0 0 1 1 1 1 1 1 1 1 1 0 0 0 1 1 0 0 0 0 0 0 0 0 0 0 0 0 0 0
Wind_Speed
2 2 2 2 1 1 1 1 1 2 2 2 1 1 1 2 4 3 4 8 9 9 8 8 7 7 7 7 7 7 6 7 7 7 8 8 9 9
2 2 2 1 1 1 1 1 1 1 2 1 1 1 1 1 2 3 3 7 10 10 10 9 9 8 8 8 8 8 7 8 8 8 9 9 9 9
2 2 2 1 1 1 1 1 1 1 2 2 1 1 1 2 2 2 2 4 5 10 11 11 10 10 10 10 9 9 8 9 9 9 9 10 10 10
3 2 2 1 1 1 1 2 2 1 2 3 2 2 2 2 2 3 3 3 3 9 12 12 12 12 11 11 11 10 10 10 10 10 10 10 11 11
3 3 2 2 2 1 2 2 2 2 2 2 3 2 2 2 1 3 3 2 4 5 9 11 12 12 12 12 12 12 12 11 11 11 11 11 11 11
2 3 2 2 2 2 3 2 2 2 2 3 3 2 1 1 1 2 2 2 3 3 3 5 9 11 12 12 13 13 12 11 12 12 11 11 12 12
2 2 2 2 3 2 2 1 1 1 2 3 3 2 1 1 1 2 2 2 2 2 1 2 3 4 6 9 12 12 11 12 12 12 12 11 11 11
2 2 2 4 3 3 3 3 3 3 2 2 3 3 2 2 1 2 2 2 2 1 2 4 3 3 3 4 8 10 11 12 12 11 11 11 11 11
3 3 3 2 3 2 3 4 5 6 6 3 4 4 4 3 2 3 3 3 4 3 2 4 3 3 3 3 6 9 10 10 10 11 11 11 11 11
3 3 2 1 2 2 2 3 4 4 5 5 4 5 5 3 2 3 4 4 5 3 2 3 3 3 3 2 6 7 8 9 10 11 11 11 12 12
3 3 4 3 3 3 3 3 3 3 5 5 6 6 7 7 4 2 3 3 4 3 1 2 3 3 2 2 3 6 8 9 10 10 11 11 11 10
3 4 5 5 5 4 4 3 4 4 3 4 5 6 7 8 8 5 4 3 3 4 2 1 3 2 3 2 2 3 4 7 9 9 10 10 10 6
2 2 3 6 6 6 5 4 6 5 4 4 4 5 5 5 4 5 4 4 4 4 3 1 2 2 3 3 2 2 3 3 3 4 7 8 9 7
3 1 2 5 5 6 5 6 6 5 4 4 4 4 4 3 3 4 5 5 5 6 5 3 3 3 3 4 4 2 2 3 3 3 3 5 7 9
2 1 3 5 5 5 8 9 6 4 4 4 4 4 3 3 3 3 4 5 6 6 5 5 4 4 3 4 4 3 3 3 3 2 2 3 3 4
3 3 5 8 7 6 5 5 5 5 5 4 4 4 3 3 3 3 3 3 4 4 5 5 5 5 4 4 4 3 3 3 3 2 2 3 3 3
2 3 4 4 4 4 4 5 5 5 5 4 4 4 3 3 3 3 3 3 4 4 3 3 3 3 4 3 3 4 3 3 3 2 2 3 3 3
2 3 3 4 4 4 3 3 3 3 3 3 3 3 3 3 3 3 3 3 4 3 3 2 2 2 2 3 4 4 3 3 3 3 2 3 3 2
3 4 4 3 3 3 3 3 2 2 2 2 2 2 3 3 3 3 3 3 3 2 2 2 2 2 3 5 4 4 3 3 3 2 2 3 3 2
5 5 4 3 3 3 3 2 1 1 1 2 2 2 2 3 2 3 3 3 2 3 3 2 2 2 3 4 3 3 5 4 3 3 3 2 2 2
5 4 3 3 2 2 1 1 1 1 2 2 2 2 2 2 3 3 2 3 3 3 3 3 3 4 3 2 2 3 2 4 3 3 3 2 2 2
3 3 2 2 2 1 1 1 1 2 1 2 2 2 2 2 2 3 2 2 2 3 3 2 2 2 2 2 3 3 3 2 2 3 2 3 2 2
2 2 2 2 1 1 1 1 2 2 1 1 2 2 2 2 2 3 2 2 2 3 2 2 1 1 2 2 2 2 3 2 1 1 1 3 4 4
Wind_Direction
233 255 277 277 280 277 268 261 262 284 276 247 220 191 187 170 179 195 195 202 203 205 211 216 224 234 236 236 232 229 230 233 233 236 239 242 243 244
215 225 254 279 302 296 277 271 258 251 268 273 269 252 248 251 200 217 220 211 211 208 210 214 221 227 232 233 232 232 233 234 234 238 242 243 245 246
224 221 243 262 293 305 307 290 285 265 261 278 258 251 230 244 239 247 234 215 213 210 211 212 216 222 229 231 229 231 235 235 235 239 242 245 246 246
214 210 230 253 266 281 291 295 289 266 256 273 269 248 242 228 228 245 249 238 222 209 210 212 215 220 223 229 227 225 229 231 234 238 241 244 246 245
216 215 216 222 248 261 269 276 281 283 266 269 270 254 246 232 233 269 263 259 260 221 211 215 219 220 224 226 224 224 226 228 231 235 240 243 246 245
217 220 216 216 233 249 254 258 269 299 284 275 271 260 250 250 233 264 273 257 273 274 246 230 223 223 227 225 224 226 227 228 231 232 235 238 242 243
223 218 214 195 209 227 260 278 284 283 292 288 285 283 284 305 289 288 291 284 272 267 276 269 241 228 226 228 227 225 224 226 230 232 233 234 235 234
224 225 202 196 190 205 238 248 237 238 266 291 293 288 290 296 288 292 297 298 290 273 286 279 260 246 236 221 212 215 220 224 227 229 232 233 233 232
217 223 245 211 164 203 228 246 254 241 224 229 265 280 285 283 287 285 282 278 272 267 261 271 267 263 258 251 203 208 215 219 222 225 229 231 233 234
221 214 217 221 219 240 249 240 240 240 230 225 237 259 273 277 263 263 268 273 268 259 231 263 270 267 272 244 212 214 219 223 227 230 230 229 230 232
227 211 209 212 205 223 244 260 265 257 251 240 229 241 253 261 262 274 272 276 287 284 256 262 275 280 269 253 232 232 230 226 232 237 237 234 231 230
226 210 208 209 200 210 226 243 258 268 279 272 258 250 247 251 244 227 242 259 278 284 272 265 281 301 288 262 250 242 240 238 240 239 238 233 228 224
235 219 201 189 201 217 231 237 246 259 269 265 259 249 238 237 229 218 222 232 253 266 277 270 276 278 268 280 272 244 233 243 240 242 239 238 227 215
249 237 189 195 211 226 234 244 256 265 258 259 259 258 253 243 232 224 222 227 236 250 259 251 248 253 266 279 280 267 256 247 234 235 234 226 227 229
269 257 230 232 238 240 239 240 243 245 250 253 258 260 255 247 233 231 232 233 243 251 251 236 234 245 250 262 271 266 269 262 243 235 231 223 218 215
257 258 242 238 241 250 246 231 227 234 241 251 256 259 258 248 241 239 240 238 248 256 244 234 227 229 248 256 262 268 265 262 265 254 239 237 227 215
236 238 235 228 228 230 230 225 222 226 235 244 252 257 259 260 258 251 239 242 243 249 253 241 226 214 228 251 263 267 264 271 271 267 255 252 242 225
223 244 248 246 245 247 242 233 227 229 239 242 247 253 260 264 264 258 247 246 250 250 249 246 229 228 255 264 247 261 271 268 271 264 252 254 258 250
224 251 252 255 257 261 257 248 239 233 238 248 248 253 261 267 269 266 265 257 255 256 260 254 240 233 254 271 266 236 257 271 267 261 252 247 255 257
237 247 248 250 254 262 267 267 272 283 279 275 273 266 257 260 263 269 270 269 268 265 263 258 243 236 242 260 276 269 237 244 255 258 257 253 252 249
235 244 251 257 265 273 276 277 273 272 275 277 275 279 277 271 265 265 269 276 272 270 272 266 251 243 234 238 272 272 254 233 244 248 249 250 252 244
249 257 265 270 271 276 290 303 302 294 280 265 278 283 287 287 285 278 276 280 277 275 280 280 266 250 242 242 260 269 268 245 247 269 274 246 236 240
262 274 281 278 268 262 274 300 310 306 313 312 314 306 295 294 297 293 276 271 277 283 278 270 267 265 274 255 260 273 280 265 239 231 262 255 224 227